Regional Weather Roundup
Issued by NWS Wakefield, VA

Home | Current Version | Previous Version | Text Only | Print | Product List | Glossary Off
Versions: 1 2 3 4 5 6 7 8 9 10 11 12 13 14 15 16 17 18 19 20 21 22 23 24 25 26 27 28 29 30 31 32 33 34 35 36 37 38 39 40 41 42 43 44 45 46 47 48 49 50

485
ASUS41 KAKQ 212115
RWRAKQ

REGIONAL WEATHER ROUNDUP
NATIONAL WEATHER SERVICE WAKEFIELD VA
500 PM EDT MON MAY 21 2018

Note: "fair" indicates few or no clouds below 12,000 feet with no
significant weather and/or obstructions to visibility. * = Denotes
station may not report precipitation (e.g., rain,snow,etc.),
thunder or fog.

VAZ042-051-052>054-056-212200-
NORTHERN VIRGINIA

CITY           SKY/WX    TMP DP  RH WIND       PRES   REMARKS
WASH NATIONAL  PTSUNNY   80  62  54 E7        30.13S
DULLES         CLOUDY    78  64  61 SE7       30.12F
FORT BELVOIR   PTSUNNY   78  64  60 SE6       30.13S
QUANTICO       PTSUNNY   78  69  73 S6        30.13F
FREDERICKSBRG* CLOUDY    81  65  59 E8        30.11F
STAFFORD*      PTSUNNY   81  67  61 SE5       30.15F
WARRENTON      CLOUDY    80  62  54 SE7       30.12S
CULPEPER*      PTSUNNY   80  64  58 E5        30.12F
MANASSAS*      CLOUDY    80  65  59 SE8       30.12F
LEESBURG*      CLOUDY    81  64  57 SE5       30.13F
WINCHESTER     CLOUDY    77  63  61 E6        30.14S
FRONT ROYAL*   FAIR      79  68  69 E8        30.11S
LURAY*         FAIR      81  64  57 NE3       30.11S
$$

VAZ048-049-060>072-079>083-212200-
CENTRAL AND SOUTH CENTRAL VIRGINIA

CITY           SKY/WX    TMP DP  RH WIND       PRES   REMARKS
RICHMOND       PTSUNNY   79  67  66 E13G23    30.12F
CHESTERFIELD*  FAIR      79  67  66 SE12      30.13S
PETERSBURG*    FAIR      76  65  70 E8        30.13S
HANOVER        FAIR      79  67  66 E7        30.13F
TAPPAHANNOCK*  FAIR      77  65  65 SE8       30.15S
QUINTON*       FAIR      78  66  66 E10       30.13F
CHARLOTTSVILLE PTSUNNY   82  65  56 SE3       30.10F
GORDONSVILLE*  MOCLDY    81  70  68 SE3       30.10F
ORANGE*        PTSUNNY   79  66  65 SE5       30.11F
LOUISA*        PTSUNNY   80  66  62 E7        30.15F
BUMPASS*       CLOUDY    81  67  62 E3        30.12F
FARMVILLE*     PTSUNNY   83  75  76 SE6       30.09F
CREWE*         FAIR      81  75  83 E6        30.11S
FORT PICKETT*  MOCLDY    78  75  90 SE6       30.12S
CHASE CITY*    FAIR      80  73  78 E3        30.10F
CLARKSVILLE*   FAIR      79  73  83 CALM      30.09S
SOUTH HILL*    PTSUNNY   75  73  92 E6        30.17R
LAWRENCEVILLE* FAIR      74  69  84 E8        30.13R
EMPORIA*       DRIZZLE   70  66  88 NE6       30.15S
$$

VAZ088>098-212200-
SOUTHEAST VIRGINIA

CITY           SKY/WX    TMP DP  RH WIND       PRES   REMARKS
NORFOLK        CLOUDY    66  60  81 E10       30.16S
VIRGINIA BEACH CLOUDY    65  60  84 E12       30.15F
NORFOLK NAVAL  CLOUDY    66  57  72 E10       30.16F
WEST POINT*    FAIR      77  61  58 E9        30.16S
SALUDA*        FAIR      71  59  66 E9        30.16S
NEWPORT NEWS   FAIR      68  58  70 E12       30.16F
LANGLEY AFB    NOT AVBL
FORT EUSTIS    DRIZZLE   69  59  69 E8        30.13F
WILLIAMSBURG*  FAIR      72  57  60 E6G16     30.16S
HR EXEC AP*    MOCLDY    68  62  81 NE6       30.16S
FRANKLIN*      PTSUNNY   67  65  93 CALM      30.15S
US460-WAKEFLD  FAIR      71  62  73 E6        30.14F
$$

VAZ020-022-025-037-045-212200-
WEST CENTRAL AND SOUTHWEST VIRGINIA

CITY           SKY/WX    TMP DP  RH WIND       PRES   REMARKS
STAUNTON*      FAIR      81  65  59 SE8       30.13S
WAYNESBORO*    FAIR      78  66  67 SE9G16    30.13F
HOT SPRINGS VA CLOUDY    66  58  76 N10       30.24S THUNDER HAZE
LYNCHBURG      FAIR      81  66  60 VRB7      30.11F
DANVILLE       FAIR      83  72  69 VRB5      30.09F
SOUTH BOSTON*  FAIR      81  70  71 SE3       30.09F
MARTINSVILLE   PTSUNNY   70  66  86 CALM      30.15S
ROANOKE        CLOUDY    81  65  58 SE7       30.12F
BLACKSBURG     LGT RAIN  69  66  90 CALM      30.20F
DUBLIN*        PTSUNNY   73  64  75 CALM      30.19F
MARION*        LGT RAIN  70  67  90 E3        30.22F
HILLSVILLE*    PTSUNNY   65  63  93 CALM      30.19F
RICHLANDS*     LGT RAIN  67  33  27 SE3       30.19F
WISE*          CLOUDY    70  63  78 SE3       30.21S
ABINGDON*      CLOUDY    76  67  74 SE8       30.16F
$$

MDZ021>025-VAZ099-100-212200-
SOUTHERN MARYLAND AND THE DELMARVA PENINSULA

CITY           SKY/WX    TMP DP  RH WIND       PRES   REMARKS
PATUXENT RIVER FAIR      77  61  57 SE13      30.15S
BAY BRIDGE APT FAIR      75  63  64 W6        30.14F
LEONARDTOWN    FAIR      77  61  57 S7        30.16S
DOVER          MOSUNNY   70  56  61 E13       30.15F
GEORGETOWN     FAIR      71  52  50 E8        30.17S
EASTON         MOSUNNY   79  61  53 CALM      30.18S
CAMBRIDGE      PTSUNNY   79  61  53 E6        30.14F
SALISBURY      FAIR      73  54  51 E10       30.16S
TANGIER        NOT AVBL
OCEAN CITY     FAIR      64  55  72 SE7       30.18F
WALLOPS ISLAND FAIR      70  54  56 E8        30.18S
ACCOMACK*      FAIR      68  54  60 E6        30.17F
$$

NCZ012>017-030>032-212200-
NORTH CENTRAL AND EASTERN NORTH CAROLINA

CITY           SKY/WX    TMP DP  RH WIND       PRES   REMARKS
ROANOKE RAPIDS HVY RAIN  70  70 100 E8        30.13S
RALEIGH        LGT RAIN  72  70  93 W3        30.10S
ELIZABETH CITY CLOUDY    71  68  90 NE13      30.14S
AHOSKIE*       LGT RAIN  67  67  99 CALM      30.14F
EDENTON*       PTSUNNY   74  71  88 NE9       30.13F
CURRITUCK*     NOT AVBL
KILL DEVIL HLS CLOUDY    69  67  96 E6        30.12S FOG
MANTEO         CLOUDY    71  69  93 E10       30.14R
CAPE HATTERAS  FAIR      76  71  85 SW8       30.12S
TARBORO*       NOT AVBL
GOLDSBORO      NOT AVBL
WASHINGTON     FAIR      82  71  69 CALM      30.10F
GREENVILLE     FAIR      82  72  69 CALM      30.12S
NEW BERN       TSTM      73  71  93 CALM      30.12R FOG
WILMINGTON     FAIR      86  66  51 W12       30.09F
$$

VAZ048-212200-
ELSEWHERE

CITY           SKY/WX    TMP DP  RH WIND       PRES   REMARKS
HARRISBURG PA  FAIR      77  54  44 W3        30.12F
BALTIMORE      PTSUNNY   78  60  53 SE8       30.13F
ANNAPOLIS      FAIR      78  59  51 SE6       30.14F
ANDREWS AFB    FAIR      77  61  58 SE9       30.13F
PHILADELPHIA   FAIR      78  50  37 CALM      30.13F
HENDERSON NC   FAIR      78  69  72 NE3       30.09S
GREENSBORO     CLOUDY    75  69  81 SE10      30.11F THUNDER
ROCKY MOUNT    FAIR      82  70  66 S6        30.09S
$$

VAZ100-212200-
MARINE

STATION/POSITION TIME  TEMP    WIND        PRES    WAVE   SWELL
                       AIR SEA DIR/SP/G            HT/PER HT/PER
                 (UTC) (F)     (DEG/KT/KT) (MB)    (FT/S) (FT/S)
BRANDYWINE LGT   2036   62     150/ 14/ 16 1022.1F
CAPE MAY NJ      2036   65 65  120/ 11/ 13 1021.3F
LEWES DE         2036   65 66  140/  9/ 11 1021.9R
15NM E FENWICK I 2050   58 59   90/  4/  6 1022.3R   3/ 8   3/ 8
OCEAN-CITY-INLET 2036   63 60  120/  6/  8 1022.6S
WACHAPREAGUE VA  2036   65 77   70/ 10/ 12 1021.9F
THOMAS POINT MD  2100   74 69  250/  1/  1 1021.6F
COVE POINT MD    2036   71     140/  3/  4 1021.8S
SOLOMONS ISLAND  2036   72 72  130/ 11/ 13 1020.7F
BISHOPS HEAD MD  2036   73 81  160/ 13/ 15 1021.5F
PINEY POINT MD   2048          160/ 17/ 18   N/A
CAMBRIDGE MD     2036   79 75              1021.7F
LEWISETTA VA     2036   72 75  180/ 11/ 13 1021.2R
RAPPAHANNOCK LGT 2048           90/ 12/ 14 1022.2F
YORK RVR RNG VA  2036   67      90/ 13/ 15 1022.0F
YORKTOWN VA      2036   68 72  100/ 12/ 14 1021.1F
DOMINION TERM VA 2036   67      70/ 12/ 16 1021.4F
KIPTOPEKE VA     2048      70  100/ 11/ 15   N/A
CAPE HENRY VA    2036   64      70/ 14/ 17   N/A
WILLOUBY STN VA  2048           80/ 15/ 16   N/A
S CRANEY ISL VA  2036   66      80/ 11/ 15 1020.9F
CAPE HENRY BUOY  2100      67                N/A     3/ 4
64NM E OF VA BCH 2050   64 66   60/ 10/ 12 1021.0F   4/ 9   3/ 9
DUCK PIER NC     2036   68 61   80/ 14/ 15 1020.0F
44100 DUCK FRF   2045      67                N/A     3/ 9
44056 DUCK FRF   2100      65                N/A     3/ 9
OREGON INLET NC  2036   72 78   50/  6/ 11 1020.0F
HATTERAS NC      2036   75 76  220/  9/ 12 1019.6F
DIAMOND SHLS NC  2100   75 74  230/ 10/ 12 1020.5
CAPE LOOKOUT NC  2100          210/  9/ 11 1020.2F
$$




USA.gov is the U.S. government's official web portal to all federal, state and local government web resources and services.